Flag for Belgium Weather past 2 weeks in Ghent, Belgium

Now
44 °F

Passing clouds.


Feels Like: 44 °F
Forecast: 43 / 51 °F
Wind: 2 mph from South

Location: Munte


UV Index: 3 (Moderate)

Visibility: 19 mi


Pressure: 30.24 "Hg

Humidity: 66%

Dew point: 33 °F

Location of GhentLocation

Historic Weather in Ghent

°F

Ghent temperature yesterday

Maximum temperature yesterday: 58 °F (at 6:00 PM)
Minimum temperature yesterday: 35 °F (at 7:00 AM)
Average temperature yesterday: 48 °F

Past Weeks' High & Low Weather Summary

 TemperatureHumidityPressure
High70 °F (Apr 7, 3:00 PM)100% (Apr 11, 9:00 AM)30.44 "Hg (Apr 11, 9:00 AM)
Low35 °F (Apr 16, 7:00 AM)36% (Apr 16, 6:00 PM)29.55 "Hg (Apr 3, 5:00 AM)
Average53 °F71%30.06 "Hg
* Reported Apr 2 8:00 AM — Apr 17 8:00 AM, Ghent, Weather by CustomWeather, © 2014

Note: Actual official high and low records may vary slightly from our data, if they occured in-between our weather recording intervals... More about our weather records

Advertising

Historic Weather Conditions — Data for Previous 24 hours

 ConditionsComfort  
Time TempWeatherWind HumidityBarometerVisibility
8:00 AM
Apr 17
44 °FPassing clouds.2 mph66%30.24 "Hg19 mi
7:00 AM41 °FPassing clouds.3 mph69%30.24 "Hg25 mi
6:00 AM43 °FPassing clouds.3 mph64%30.25 "Hg25 mi
5:00 AM45 °FQuite cool.3 mph62%30.27 "Hg22 mi
4:00 AM45 °FQuite cool.5 mph65%30.28 "Hg19 mi
3:00 AM44 °FQuite cool.N/A69%30.28 "Hg16 mi
2:00 AM44 °FQuite cool.N/A68%30.29 "Hg13 mi
1:00 AM44 °FQuite cool.N/A66%30.30 "Hg14 mi
12:00 AM45 °FQuite cool.3 mph64%30.31 "Hg9 mi
11:00 PM
Apr 16
49 °FCool.N/A52%30.31 "Hg11 mi
10:00 PM52 °FCool.N/A46%30.31 "Hg14 mi
9:00 PM55 °FCool.N/A42%30.31 "Hg14 mi
8:00 PM56 °FRefreshingly cool.N/A41%30.32 "Hg22 mi
7:00 PM57 °FRefreshingly cool.2 mph40%30.32 "Hg16 mi
6:00 PM58 °FRefreshingly cool.3 mph36%30.33 "Hg18 mi
5:00 PM58 °FPartly sunny.3 mph39%30.35 "Hg17 mi
4:00 PM57 °FPartly sunny.5 mph39%30.37 "Hg13 mi
3:00 PM56 °FPartly sunny.3 mph44%30.39 "Hg7 mi
2:00 PM54 °FPartly sunny.5 mph49%30.40 "Hg12 mi
1:00 PM52 °FPassing clouds.5 mph51%30.42 "Hg9 mi
12:00 PM51 °FPassing clouds.3 mph50%30.44 "Hg13 mi
11:00 AM48 °FScattered clouds.2 mph60%30.44 "Hg8 mi
10:00 AM45 °FPartly sunny.2 mph71%30.44 "Hg11 mi
9:00 AM41 °FPartly sunny.2 mph82%30.44 "Hg10 mi
Weather by CustomWeather, © 2014

See weather overview